Torna al catalogo

STARLINK-34044

AttivoComunicazioniVLEO
NORAD 63846·PAYLOAD·🇺🇸 United States

Lanciato May 7, 2025 da Cape Canaveral Space Force Station

Loading…

Prossimi Passaggi (prossime 24 ore)

TLE

AggiornatoSource: CelesTrak SupGP

Epoca: Sep 14, 2026, 22:50 UTC

1 63846C 25093L   26257.95187500  .00040212  00000+0  14566-2 0  2572
2 63846  43.0019  88.8089 0001362 271.3297 325.1081 15.27554884    10

Traccia STARLINK-34044 in tempo reale con AllMySat

Download on the App Store